#timestamp,LO_Frequency,Hit,StdDev 
1680728415.7,286046998.2,P
1680728435.5,286046999.1,N
1680728455.4,286046999.0,N
1680728475.2,286046997.1,N
1680728495.0,286046996.6,N
1680728495.9,286046996.6,N
1680728515.8,286046997.8,N
1680728535.6,286046997.4,N
1680728555.5,286046997.1,N
1680728575.3,286046997.7,N
1680728595.1,286046996.7,N
1680728615.9,286046996.9,N
1680728635.7,286046998.7,N
1680728655.5,286046997.5,N
1680728675.4,286046997.1,N
1680728695.2,286046997.2,N
1680728715.1,286046996.5,N
1680728716.0,286046996.5,N
1680728735.8,286046997.4,N
1680728755.6,286046997.9,N
1680728775.5,286046998.9,N
1680728795.3,286046999.5,N
1680728815.1,286046997.0,N
1680728835.9,286046996.6,N
1680728855.7,286046996.9,N
1680728875.6,286046999.5,N
1680728895.4,286046996.6,N
1680728915.2,286046998.7,N
1680728935.1,286046998.6,N
1680728936.0,286046998.6,N
1680728955.8,286046998.3,N
1680728975.6,286047001.1,N
1680728995.5,286047001.2,N
1680729015.3,286046999.1,N
1680729035.1,286047001.2,N
1680729055.9,286047002.7,N
1680729075.7,286047001.0,N
1680729095.6,286047000.5,N
1680729115.4,286047001.2,N
1680729135.2,286047001.2,N
1680729155.1,286047000.5,N
1680729156.0,286047000.5,N
1680729175.8,286047000.3,N
1680729195.7,286046998.5,N
1680729215.5,286046998.3,N
1680729235.3,286047001.1,N
1680729255.2,286046999.6,N
1680729275.9,286046999.4,N
1680729295.7,286046998.7,N
1680729315.6,286046999.6,N
1680729335.4,286046999.2,N
1680729355.3,286046998.1,N
1680729375.1,286046998.2,N
1680729376.0,286046998.2,N
1680729395.8,286046999.5,N
1680729415.7,286046999.2,N
1680729435.5,286046998.8,N
1680729455.3,286046998.9,N
1680729475.2,286046999.1,N
1680729495.0,286046996.6,N
1680729495.9,286046996.6,N
1680729515.8,286046999.6,N
1680729535.6,286046999.5,N
1680729555.4,286046996.5,N
1680729575.3,286046997.0,N
1680729595.1,286046999.5,N
1680729615.8,286046996.9,N
1680729635.7,286046997.5,N
1680729655.5,286046999.6,N
1680729675.4,286046996.9,N
1680729695.2,286046997.4,N
1680729715.0,286046997.7,N
1680729715.9,286046997.7,N
1680729735.8,286046995.2,Y
1680729755.6,286046996.7,P
1680729775.4,286046996.7,P
1680729795.3,286046996.9,P
1680729815.1,286046997.0,Y
1680729835.9,286046999.7,P
1680729855.7,286046999.9,N
1680729875.5,286047000.3,N
1680729895.4,286047000.6,N
1680729915.2,286047000.8,N
1680729935.0,286047000.9,N
1680729935.9,286047000.9,N
1680729955.8,286046998.2,N
1680729975.6,286046999.9,N
1680729995.5,286047000.3,N
1680730015.3,286046999.8,N
1680730035.1,286047002.8,N
1680730055.9,286047002.3,N
1680730075.7,286047000.4,N
1680730095.6,286047000.0,N
1680730115.4,286047000.6,N
1680730135.2,286047000.3,N
1680730155.1,286047001.2,N
1680730156.0,286047001.2,N
1680730175.8,286046998.3,N
1680730195.6,286047000.9,N
1680730215.5,286046998.5,N
1680730235.3,286046998.6,N
1680730255.2,286046999.0,N
1680730275.9,286046998.7,N
1680730295.7,286046998.4,N
1680730315.6,286046998.8,N
1680730335.4,286046998.7,N
1680730355.2,286046998.2,N
1680730375.1,286046999.7,N
1680730376.0,286046999.7,N
1680730395.8,286047000.1,N
1680730415.7,286047000.8,N
1680730435.5,286047001.1,N
1680730455.3,286046998.5,N
1680730475.2,286046998.1,N
1680730495.9,286046996.6,N
1680730515.7,286046998.3,N
1680730535.6,286046999.0,N
1680730555.4,286046999.2,N
1680730575.3,286046997.7,N
1680730595.1,286047001.1,N
1680730596.0,286047001.1,N
1680730615.8,286046998.6,N
1680730635.7,286047002.7,N
1680730655.5,286047001.8,N
1680730675.3,286047000.1,N
1680730695.2,286047002.8,N
1680730715.0,286047002.4,N
1680730715.9,286047002.4,N
1680730735.8,286047000.9,N
1680730755.6,286046998.2,N
1680730775.4,286046998.4,N
1680730795.3,286046998.2,N
1680730815.1,286046999.2,N
1680730835.8,286046999.4,N
1680730855.7,286046999.2,N
1680730875.5,286046999.5,N
1680730895.4,286046997.0,N
1680730915.2,286046997.1,N
1680730935.0,286046999.5,N
1680730935.9,286046999.5,N
1680730955.8,286046997.8,N
1680730975.6,286046997.4,N
1680730995.4,286046996.7,N
1680731015.3,286046997.7,N
1680731035.1,286046999.2,N
1680731055.9,286046996.9,N
1680731075.7,286047001.0,N
1680731095.5,286046998.6,N
1680731115.4,286046998.2,N
1680731135.2,286047002.7,N
1680731155.0,286047002.4,N
1680731155.9,286047002.4,N
1680731175.8,286047002.4,N
1680731195.6,286047001.6,N
1680731215.5,286047003.9,N
1680731235.3,286047004.1,N
1680731255.1,286047003.7,N
1680731275.9,286047003.2,N
1680731295.7,286047003.6,N
1680731315.5,286047003.0,N
1680731335.4,286047003.7,N
1680731355.2,286047004.3,N
1680731375.1,286047006.0,N
1680731376.0,286047006.0,N
1680731395.8,286047003.6,N
1680731415.6,286047003.1,N
1680731435.5,286047003.1,N
1680731455.3,286047004.9,N
1680731475.1,286047005.5,N
1680731495.9,286047003.6,N
1680731515.7,286047002.9,N
1680731535.6,286047004.2,N
1680731555.4,286047003.6,N
1680731575.2,286047004.1,N
1680731595.1,286047003.7,N
1680731596.0,286047003.7,N
1680731615.8,286047003.3,N
1680731635.7,286047003.2,N
1680731655.5,286047003.8,N
1680731675.3,286047003.4,Y
1680731695.2,286047000.0,P
1680731715.0,286046999.7,N
1680731715.9,286046999.7,N
1680731735.8,286047002.8,N
1680731755.6,286047002.0,N
1680731775.4,286047001.8,N
1680731795.3,286047002.1,N
1680731815.1,286047001.6,N
1680731835.8,286047002.0,N
1680731855.7,286047000.0,N
1680731875.5,286047002.3,N
1680731895.4,286046999.8,N
1680731915.2,286047000.4,N
1680731935.0,286047000.6,N
1680731935.9,286047000.6,N
1680731955.8,286047002.1,N
1680731975.6,286047000.6,N
1680731995.5,286047002.8,N
